User: anonymous   Login
Location: ??
(34.7252°N, 135.5457°E)
Time: 19:06:19
(UTC+00:00)
Language:

Cosmos 2016 Rocket - Orbit

View from above orbital plane
View from above orbital plane
View from above satellite
View from above satellite

Ground track
Ground track

The orbit data is extracted from the following two-line orbital elements,

1 19922U 89028B   21163.46640951  .00000060  00000-0  44253-4 0  9996
2 19922  82.9603  66.4480 0037575 125.0836 235.3854 13.77240829617426
Epoch (UTC): 12 June 2021 11:11:37
Eccentricity: 0.0037575
inclination: 82.9603°
perigee height: 946 km
apogee height: 1001 km
right ascension of ascending node: 66.4480°
argument of perigee: 125.0836°
revolutions per day: 13.77240829
mean anomaly at epoch: 235.3854°
orbit number at epoch: 61742

The dashed part of the orbit path shows where the satellite is in the earth's shadow,  

DLR